Weather History for Taylorville, IL

Change the Weather History Date:

Sunday, September 23, 2012

  Actual Average (KSPI) Record (KSPI)
Temperature  
Mean Temperature 50 °F 64 °F  
Max Temperature 66 °F 76 °F 93 °F (2007)
Min Temperature 35 °F 51 °F 32 °F (1995)
Degree Days  
Heating Degree Days 14 4  
Month to date heating degree days 40  
Since 1 July heating degree days 45  
Cooling Degree Days 0 3  
Month to date cooling degree days 113  
Year to date cooling degree days 1083  
Moisture  
Dew Point 34 °F    
Average Humidity 61    
Maximum Humidity 100    
Minimum Humidity 24    
Precipitation  
Precipitation 0.00 in 0.09 in 1.38 in (1984)
Month to date precipitation 2.23  
Year to date precipitation 27.88  
Snow  
Snow 0.00 in 0.00 in 0.00 in ()
Month to date snowfall 0.0  
Since 1 July snowfall 0.0  
Since 1 September snowfall 0.0  
Snow Depth -    
Sea Level Pressure  
Sea Level Pressure 30.25 in    
Wind  
Wind Speed 4 mph (NW)    
Max Wind Speed 14 mph    
Max Gust Speed 18 mph    
Visibility 10 miles    
Events      
T = Trace of Precipitation, MM = Missing Value Source: NWS Daily Summary

Daily Weather History Graph

Daily Weather History Graph

Search for Another Location

Airport:

Trip Planner

Search our weather history database for the weather conditions in past years. The results will help you decide how hot, cold, wet, or windy it might be!

Date:

Astronomy

Sep. 23, 2012 Rise Set
Actual Time 6:46 AM CDT 6:51 PM CDT
Civil Twilight 6:19 AM CDT 7:18 PM CDT
Nautical Twilight 5:48 AM CDT 7:50 PM CDT
Astronomical Twilight 5:16 AM CDT 8:21 PM CDT
Moon 2:51 PM CDT (9/23) No Moon Set
Length of Visible Light 12h 59m
Length of Day
12h 05m
First Quarter, 60% of the Moon is Illuminated
Sep 23
First Quarter
Sep 29
Full
Oct 8
Last Quarter
Oct 15
New
Oct 21
First Quarter

Hourly Weather History & Observations

Time (CDT) Temp. Windchill Dew Point Humidity Pressure Visibility Wind Dir Wind Speed Gust Speed Precip Events Conditions
12:15 AM 44.6 °F 41.4 °F 37.4 °F 76% 30.21 in 10.0 mi NW 5.8 mph - N/A   Clear
12:35 AM 44.6 °F 40.7 °F 37.4 °F 76% 30.21 in 10.0 mi NW 6.9 mph - N/A   Clear
12:55 AM 44.6 °F 41.4 °F 37.4 °F 76% 30.21 in 10.0 mi NNW 5.8 mph - N/A   Clear
1:15 AM 42.8 °F 40.1 °F 35.6 °F 76% 30.22 in 10.0 mi North 4.6 mph - N/A   Clear
1:35 AM 42.8 °F 40.1 °F 35.6 °F 76% 30.22 in 10.0 mi NNW 4.6 mph - N/A   Clear
1:55 AM 42.8 °F - 37.4 °F 81% 30.22 in 10.0 mi Calm Calm - N/A   Clear
2:15 AM 42.8 °F - 37.4 °F 81% 30.23 in 10.0 mi Calm Calm - N/A   Clear
2:35 AM 39.2 °F - 35.6 °F 87% 30.22 in 10.0 mi Calm Calm - N/A   Clear
2:55 AM 39.2 °F - 35.6 °F 87% 30.23 in 10.0 mi Calm Calm - N/A   Clear
3:15 AM 39.2 °F - 37.4 °F 93% 30.23 in 10.0 mi Calm Calm - N/A   Clear
3:35 AM 37.4 °F - 35.6 °F 93% 30.24 in 10.0 mi Calm Calm - N/A   Clear
3:55 AM 39.2 °F 37.0 °F 37.4 °F 93% 30.24 in 10.0 mi NNW 3.5 mph - N/A   Clear
4:15 AM 39.2 °F 37.0 °F 37.4 °F 93% 30.25 in 10.0 mi NW 3.5 mph - N/A   Clear
4:35 AM 39.2 °F - 37.4 °F 93% 30.25 in 10.0 mi Calm Calm - N/A   Clear
4:55 AM 37.4 °F - 37.4 °F 100% 30.25 in 10.0 mi Calm Calm - N/A   Clear
5:15 AM 37.4 °F - 37.4 °F 100% 30.26 in 10.0 mi Calm Calm - N/A   Clear
5:35 AM 37.4 °F - 37.4 °F 100% 30.26 in 10.0 mi Calm Calm - N/A   Clear
5:55 AM 37.4 °F - 35.6 °F 93% 30.26 in 10.0 mi Calm Calm - N/A   Clear
6:15 AM 35.6 °F - 35.6 °F 100% 30.26 in 10.0 mi Calm Calm - N/A   Clear
6:35 AM 35.6 °F - 35.6 °F 100% 30.27 in 10.0 mi Calm Calm - N/A   Clear
6:55 AM 35.6 °F - 35.6 °F 100% 30.27 in 7.0 mi Calm Calm - N/A   Clear
7:15 AM 37.4 °F - 35.6 °F 93% 30.28 in 10.0 mi Calm Calm - N/A   Clear
7:35 AM 37.4 °F - 37.4 °F 100% 30.28 in 10.0 mi Calm Calm - N/A   Clear
7:55 AM 41.0 °F - 39.2 °F 93% 30.29 in 10.0 mi Calm Calm - N/A   Clear
8:35 AM 46.4 °F - 42.8 °F 87% 30.29 in 10.0 mi Calm Calm - N/A   Clear
8:55 AM 50.0 °F - 42.8 °F 76% 30.30 in 10.0 mi Calm Calm - N/A   Clear
9:15 AM 51.8 °F - 41.0 °F 67% 30.30 in 10.0 mi North 5.8 mph - N/A   Clear
9:35 AM 53.6 °F - 39.2 °F 58% 30.30 in 10.0 mi NNW 5.8 mph - N/A   Clear
9:55 AM 55.4 °F - 39.2 °F 54% 30.30 in 10.0 mi NNW 4.6 mph - N/A   Clear
10:15 AM 57.2 °F - 39.2 °F 51% 30.30 in 10.0 mi WNW 5.8 mph - N/A   Clear
10:35 AM 59.0 °F - 33.8 °F 39% 30.30 in 10.0 mi NW 5.8 mph - N/A   Clear
10:55 AM 57.2 °F - 33.8 °F 41% 30.30 in 10.0 mi West 6.9 mph - N/A   Scattered Clouds
11:15 AM 60.8 °F - 32.0 °F 34% 30.31 in 10.0 mi WNW 12.7 mph 17.3 mph N/A   Scattered Clouds
11:35 AM 60.8 °F - 32.0 °F 34% 30.30 in 10.0 mi WNW 4.6 mph 16.1 mph N/A   Clear
11:55 AM 60.8 °F - 30.2 °F 31% 30.30 in 10.0 mi WNW 9.2 mph - N/A   Clear
12:15 PM 62.6 °F - 32.0 °F 32% 30.30 in 10.0 mi WNW 11.5 mph - N/A   Clear
12:35 PM 62.6 °F - 30.2 °F 30% 30.29 in 10.0 mi NNW 9.2 mph 12.7 mph N/A   Clear
12:55 PM 62.6 °F - 32.0 °F 32% 30.29 in 10.0 mi WSW 8.1 mph 18.4 mph N/A   Clear
1:15 PM 62.6 °F - 30.2 °F 30% 30.28 in 10.0 mi NW 6.9 mph - N/A   Clear
1:35 PM 64.4 °F - 30.2 °F 28% 30.27 in 10.0 mi WNW 8.1 mph 17.3 mph N/A   Clear
1:55 PM 64.4 °F - 30.2 °F 28% 30.26 in 10.0 mi NW 10.4 mph 16.1 mph N/A   Clear
2:15 PM 64.4 °F - 30.2 °F 28% 30.25 in 10.0 mi West 12.7 mph 16.1 mph N/A   Clear
2:35 PM 64.4 °F - 30.2 °F 28% 30.25 in 10.0 mi NW 12.7 mph - N/A   Clear
2:55 PM 66.2 °F - 30.2 °F 26% 30.24 in 10.0 mi NW 10.4 mph 17.3 mph N/A   Clear
3:15 PM 66.2 °F - 28.4 °F 24% 30.24 in 10.0 mi NW 9.2 mph 16.1 mph N/A   Clear
3:35 PM 66.2 °F - 28.4 °F 24% 30.23 in 10.0 mi NW 6.9 mph 18.4 mph N/A   Clear
3:55 PM 66.2 °F - 28.4 °F 24% 30.22 in 10.0 mi WNW 5.8 mph 18.4 mph N/A   Clear
4:15 PM 66.2 °F - 28.4 °F 24% 30.22 in 10.0 mi NW 8.1 mph 16.1 mph N/A   Clear
4:35 PM 64.4 °F - 28.4 °F 26% 30.22 in 10.0 mi NW 9.2 mph - N/A   Clear
4:55 PM 64.4 °F - 28.4 °F 26% 30.22 in 10.0 mi WNW 10.4 mph - N/A   Clear
5:15 PM 64.4 °F - 28.4 °F 26% 30.22 in 10.0 mi WNW 13.8 mph - N/A   Clear
5:35 PM 64.4 °F - 26.6 °F 24% 30.22 in 10.0 mi NW 9.2 mph - N/A   Clear
5:55 PM 62.6 °F - 24.8 °F 24% 30.22 in 10.0 mi NW 8.1 mph - N/A   Clear
6:15 PM 60.8 °F - 26.6 °F 27% 30.22 in 10.0 mi NW 6.9 mph - N/A   Clear
6:35 PM 59.0 °F - 26.6 °F 29% 30.22 in 10.0 mi NW 4.6 mph - N/A   Clear
6:55 PM 55.4 °F - 28.4 °F 36% 30.22 in 10.0 mi Calm Calm - N/A   Clear
7:15 PM 53.6 °F - 28.4 °F 38% 30.23 in 10.0 mi NNW 3.5 mph - N/A   Clear
7:35 PM 51.8 °F - 30.2 °F 44% 30.23 in 10.0 mi NW 3.5 mph - N/A   Clear
7:55 PM 50.0 °F - 32.0 °F 50% 30.24 in 10.0 mi Calm Calm - N/A   Clear
8:15 PM 50.0 °F - 30.2 °F 47% 30.24 in 10.0 mi Calm Calm - N/A   Clear
8:35 PM 46.4 °F - 33.8 °F 62% 30.25 in 10.0 mi Calm Calm - N/A   Clear
8:55 PM 46.4 °F - 33.8 °F 62% 30.25 in 10.0 mi Calm Calm - N/A   Clear
9:15 PM 44.6 °F - 33.8 °F 66% 30.26 in 10.0 mi Calm Calm - N/A   Clear
9:35 PM 44.6 °F - 33.8 °F 66% 30.26 in 10.0 mi Calm Calm - N/A   Clear
9:55 PM 44.6 °F - 33.8 °F 66% 30.26 in 10.0 mi Calm Calm - N/A   Clear
10:15 PM 42.8 °F - 35.6 °F 76% 30.26 in 10.0 mi Calm Calm - N/A   Clear
10:35 PM 41.0 °F - 35.6 °F 81% 30.26 in 10.0 mi Calm Calm - N/A   Clear
10:55 PM 39.2 °F - 35.6 °F 87% 30.26 in 10.0 mi Calm Calm - N/A   Clear
11:15 PM 39.2 °F - 35.6 °F 87% 30.26 in 10.0 mi Calm Calm - N/A   Clear
11:35 PM 39.2 °F - 35.6 °F 87% 30.26 in 10.0 mi Calm Calm - N/A   Clear
11:55 PM 39.2 °F - 35.6 °F 87% 30.26 in 10.0 mi Calm Calm - N/A   Clear